This is the latest recevied weather packets stored in our database for station/object K7NDG. If no packets are shown the sender has not sent any weather packets the latest 10 day(s).
| Time | Temp. | Humidity | Pressure | Rain* | Wind** | Luminosity | Snow |
|---|---|---|---|---|---|---|---|
| 1777833988 | 25.56° C | 45% | 1012.9 hPa | 0 mm | - | 373 W/m² | - |
| 1777833685 | 25° C | 44% | 1013.1 hPa | 0 mm | - | 215 W/m² | - |
| 1777833381 | 25° C | 45% | 1012.9 hPa | 0 mm | - | 396 W/m² | - |
| 1777833078 | 25° C | 43% | 1013.1 hPa | 0 mm | - | 597 W/m² | - |
| 1777832777 | 25° C | 47% | 1013.1 hPa | 0 mm | - | 586 W/m² | - |
| 1777832475 | 25° C | 50% | 1013.2 hPa | 0 mm | - | 595 W/m² | - |
| 1777832171 | 24.44° C | 50% | 1013.2 hPa | 0 mm | - | 569 W/m² | - |
| 1777831868 | 23.89° C | 49% | 1013.2 hPa | 0 mm | - | 554 W/m² | - |
| 1777831565 | 23.89° C | 49% | 1013.3 hPa | 0 mm | - | 535 W/m² | - |
| 1777831263 | 23.33° C | 47% | 1013.3 hPa | 0 mm | - | 531 W/m² | - |
| 1777830959 | 23.33° C | 49% | 1013.5 hPa | 0 mm | - | 537 W/m² | - |
| 1777830657 | 23.33° C | 47% | 1013.4 hPa | 0 mm | - | 527 W/m² | - |
| 1777830353 | 22.78° C | 48% | 1013.5 hPa | 0 mm | - | 520 W/m² | - |
| 1777830050 | 22.78° C | 49% | 1013.6 hPa | 0 mm | - | 511 W/m² | - |
| 1777829745 | 22.78° C | 48% | 1013.5 hPa | 0 mm | - | 476 W/m² | - |
| 1777829442 | 22.22° C | 50% | 1013.6 hPa | 0 mm | - | 493 W/m² | - |
| 1777829139 | 22.22° C | 49% | 1013.4 hPa | 0 mm | - | 487 W/m² | - |
| 1777828836 | 21.67° C | 51% | 1013.6 hPa | 0 mm | - | 466 W/m² | - |
| 1777828533 | 21.67° C | 53% | 1013.7 hPa | 0 mm | - | 436 W/m² | - |
| 1777828230 | 21.67° C | 55% | 1013.7 hPa | 0 mm | - | 402 W/m² | - |
| 1777827926 | 21.11° C | 55% | 1013.6 hPa | 0 mm | - | 318 W/m² | - |
| 1777827624 | 21.11° C | 58% | 1013.6 hPa | 0 mm | - | 423 W/m² | - |
| 1777827321 | 20.56° C | 57% | 1013.7 hPa | 0 mm | - | 388 W/m² | - |
| 1777827017 | 20° C | 58% | 1013.8 hPa | 0 mm | - | 406 W/m² | - |
| 1777826715 | 20° C | 62% | 1013.8 hPa | 0 mm | - | 347 W/m² | - |
* Rain latest hour (hover to see other rain measurements)
** Current wind speed in m/s (hover to see current wind gust speed)